Location: Capvern
(43.1036°N, 0.3160°E)
Time: 18:06:02
(UTC+00:00)

X-37B - Visible Passes

Search period start: 24 January 2022 00:00
Search period end: 03 February 2022 00:00
Orbit: 334 x 337 km, 45.0° (Epoch: 11 January)

Date Brightness Start Highest point End Pass type
(mag) Time Alt. Az. Time Alt. Az. Time Alt. Az.
25 Jan 2.8 18:30:29 10° S 18:31:25 13° SSE 18:31:25 13° SSE visible
26 Jan 2.1 18:49:37 10° SW 18:51:15 24° S 18:51:15 24° S visible
27 Jan 2.7 17:35:56 10° S 17:37:24 13° SE 17:38:53 10° ESE visible
27 Jan 2.6 19:09:41 10° WSW 19:11:01 24° WSW 19:11:01 24° WSW visible
28 Jan 1.5 17:55:03 10° SW 17:57:35 30° SSE 17:59:29 15° E visible
28 Jan 3.6 19:30:07 10° W 19:30:43 15° W 19:30:43 15° W visible
29 Jan 0.3 18:15:07 10° WSW 18:17:55 67° SSE 18:19:08 30° E visible
30 Jan 0.3 18:35:33 10° W 18:38:23 70° N 18:38:45 59° NE visible
31 Jan 1.2 18:56:06 10° W 18:58:21 44° NW 18:58:21 44° NW visible
01 Feb 0.4 17:40:58 10° W 17:43:49 70° N 17:46:38 10° ENE visible
01 Feb 2.7 19:16:38 10° WNW 19:17:57 24° WNW 19:17:57 24° WNW visible
02 Feb 0.6 18:01:32 10° W 18:04:20 54° N 18:06:20 17° ENE visible
02 Feb 3.7 19:37:06 10° WNW 19:37:34 14° WNW 19:37:34 14° WNW visible
